User: anonymous   Login
Location: Unspecified
(0.0000°N, 0.0000°E)
Time: 18:30:19
(UTC+00:00)
Language:

PLEIADES 1B - Orbit

View from above orbital plane
View from above orbital plane
View from above satellite
View from above satellite

Ground track
Ground track

The orbit data is extracted from the following two-line orbital elements,

1 39019U 12068A   15030.40140789  .00000294  00000-0  72987-4 0  4897
2 39019 098.1780 107.0861 0001163 084.6919 275.4420 14.58573277115075
Epoch (UTC): 30 January 2015 09:38:01
Eccentricity: 0.0001163
inclination: 98.1780°
perigee height: 697 km
apogee height: 698 km
right ascension of ascending node: 107.0861°
argument of perigee: 84.6919°
revolutions per day: 14.58573277
mean anomaly at epoch: 275.4420°
orbit number at epoch: 11507

The dashed part of the orbit path shows where the satellite is in the earth's shadow,  

DLR